This is the latest recevied weather packets stored in our database for station/object EA3ANS-1. If no packets are shown the sender has not sent any weather packets the latest 10 day(s).
| Time | Temp. | Humidity | Pressure | Rain* | Wind** | Luminosity | Snow |
|---|---|---|---|---|---|---|---|
| 1787655950 | 31.67° C | - | 1011.2 hPa | 0 mm | 0.89 m/s, 20° | - | - |
| 1787655349 | 31.67° C | - | 1011.2 hPa | 0 mm | 3.58 m/s, 284° | - | - |
| 1787654752 | 31.11° C | - | 1011.3 hPa | 0 mm | 2.24 m/s, 304° | - | - |
| 1787654155 | 30.56° C | - | 1011.3 hPa | 0 mm | 3.58 m/s, 253° | - | - |
| 1787653557 | 31.11° C | - | 1011.3 hPa | 0 mm | 2.68 m/s, 221° | - | - |
| 1787652959 | 30.56° C | - | 1011.3 hPa | 0 mm | 2.24 m/s, 321° | - | - |
| 1787652362 | 30.56° C | - | 1011.5 hPa | 0 mm | 3.58 m/s, 207° | - | - |
| 1787651759 | 30° C | - | 1011.6 hPa | 0 mm | 0 m/s | - | - |
| 1787651162 | 29.44° C | - | 1011.5 hPa | 0 mm | 0.89 m/s, 315° | - | - |
| 1787650564 | 28.33° C | - | 1011.7 hPa | 0 mm | 2.68 m/s, 3° | - | - |
| 1787649967 | 28.33° C | - | 1011.6 hPa | 0 mm | 1.79 m/s, 302° | - | - |
| 1787649370 | 28.33° C | - | 1011.6 hPa | 0 mm | 1.79 m/s, 349° | - | - |
| 1787648772 | 27.78° C | - | 1011.6 hPa | 0 mm | 0.89 m/s, 13° | - | - |
| 1787648175 | 27.22° C | - | 1011.6 hPa | 0 mm | 0.89 m/s, 325° | - | - |
| 1787647572 | 26.11° C | - | 1011.6 hPa | 0 mm | 1.79 m/s, 333° | - | - |
| 1787646975 | 25.56° C | - | 1011.5 hPa | 0 mm | 1.79 m/s, 316° | - | - |
| 1787646378 | 25° C | - | 1011.5 hPa | 0 mm | 2.24 m/s, 1° | - | - |
| 1787645780 | 25° C | - | 1011.5 hPa | 0 mm | 2.68 m/s, 281° | - | - |
| 1787645183 | 24.44° C | - | 1011.2 hPa | 0 mm | 2.68 m/s, 300° | - | - |
| 1787644586 | 24.44° C | - | 1011.6 hPa | 0 mm | 2.24 m/s, 325° | - | - |
| 1787643988 | 23.33° C | - | 1011.6 hPa | 0 mm | 3.13 m/s, 328° | - | - |
| 1787643385 | 22.22° C | - | 1011.6 hPa | 0 mm | 2.68 m/s, 312° | - | - |
| 1787642787 | 21.67° C | - | 1011.6 hPa | 0 mm | 3.13 m/s, 345° | - | - |
| 1787642190 | 21.67° C | - | 1011.5 hPa | 0 mm | 1.79 m/s, 347° | - | - |
| 1787641592 | 21.11° C | - | 1011.6 hPa | 0 mm | 3.13 m/s, 297° | - | - |
* Rain latest hour (hover to see other rain measurements)
** Current wind speed in m/s (hover to see current wind gust speed)